N2CJC Weather Reports


time (UTC)temp
C
wind
direction
speed
KPH
gust
KPH
rain 1hr
cm
rain 24hr
cm
rain mn
cm
humidity
%
barometer
mb
20260906211116 21 0 4.8 11.3 0.00 0.00 0.00 65 1019.5
20260906210516 21 0 4.8 9.7 0.00 0.00 0.00 66 1019.3
20260906210016 21 0 4.8 14.5 0.00 0.00 0.00 67 1019.4
20260906205516 21 0 6.4 14.5 0.00 0.00 0.00 65 1019.4
20260906205036 21 0 3.2 9.7 0.00 0.00 0.00 65 1019.4
20260906204536 21 0 4.8 12.9 0.00 0.00 0.00 64 1019.3
20260906204016 21 0 4.8 9.7 0.00 0.00 0.00 64 1019.4
20260906203516 21 0 3.2 9.7 0.00 0.00 0.00 65 1019.3
20260906203036 21 0 4.8 12.9 0.00 0.00 0.00 62 1019.3
20260906202536 21 0 6.4 19.3 0.00 0.00 0.00 66 1019.4
20260906202016 21 0 4.8 9.7 0.00 0.00 0.00 67 1019.2
20260906201516 21 0 6.4 14.5 0.00 0.00 0.00 68 1019.3
20260906201016 21 0 8.0 17.7 0.00 0.00 0.00 68 1019.3
20260906200516 21 0 6.4 12.9 0.00 0.00 0.00 67 1019.4
20260906200016 21 0 6.4 16.1 0.00 0.00 0.00 68 1019.4
20260906195516 21 0 8.0 14.5 0.00 0.00 0.00 67 1019.4
20260906195016 21 0 4.8 16.1 0.00 0.00 0.00 68 1019.4
20260906194516 21 0 8.0 17.7 0.00 0.00 0.00 70 1019.5
20260906194016 21 0 4.8 12.9 0.00 0.00 0.00 68 1019.5
20260906193536 21 0 6.4 24.1 0.00 0.00 0.00 68 1019.5
20260906193017 21 0 9.7 24.1 0.00 0.00 0.00 70 1019.4
20260906192516 21 0 8.0 17.7 0.00 0.00 0.00 68 1019.2
20260906192016 21 0 4.8 14.5 0.00 0.00 0.00 68 1019.2
20260906191516 21 0 8.0 19.3 0.00 0.00 0.00 66 1019.3
20260906191016 21 0 6.4 17.7 0.00 0.00 0.00 67 1019.3
20260906190516 21 0 4.8 16.1 0.00 0.00 0.00 67 1019.3
20260906190016 21 0 6.4 19.3 0.00 0.00 0.00 69 1019.2
20260906185516 21 0 8.0 16.1 0.00 0.00 0.00 69 1019.2
20260906185016 21 0 4.8 11.3 0.00 0.00 0.00 72 1019.3
20260906184516 21 0 8.0 19.3 0.00 0.00 0.00 72 1019.3
20260906184036 21 0 9.7 19.3 0.00 0.00 0.00 72 1019.3
20260906183516 21 0 6.4 16.1 0.00 0.00 0.00 71 1019.3
20260906183016 21 0 6.4 17.7 0.00 0.00 0.00 71 1019.4
20260906182516 20 0 6.4 16.1 0.00 0.00 0.00 68 1019.3
20260906182036 21 0 6.4 20.9 0.00 0.00 0.00 71 1019.4
20260906181516 20 0 4.8 9.7 0.00 0.00 0.00 71 1019.4
20260906181016 20 0 4.8 9.7 0.00 0.00 0.00 74 1019.5
20260906180516 20 0 4.8 14.5 0.00 0.00 0.00 71 1019.3
20260906180016 21 0 4.8 16.1 0.00 0.00 0.00 71 1019.3
20260906175516 21 68 6.4 17.7 0.00 0.00 0.00 70 1019.3
20260906175016 21 0 6.4 12.9 0.00 0.00 0.00 67 1019.3
20260906174516 21 0 6.4 14.5 0.00 0.00 0.00 68 1019.3
20260906174016 21 0 4.8 14.5 0.00 0.00 0.00 68 1019.4
20260906173516 21 0 8.0 19.3 0.00 0.00 0.00 65 1019.4
20260906173036 21 0 9.7 17.7 0.00 0.00 0.00 63 1019.5
20260906172516 22 0 8.0 20.9 0.00 0.00 0.00 66 1019.5
20260906172016 21 45 6.4 19.3 0.00 0.00 0.00 65 1019.5
20260906171516 21 0 4.8 11.3 0.00 0.00 0.00 66 1019.4
20260906171016 22 0 9.7 17.7 0.00 0.00 0.00 68 1019.5
20260906170516 22 0 8.0 19.3 0.00 0.00 0.00 65 1019.5
20260906170036 22 0 6.4 12.9 0.00 0.00 0.00 68 1019.4
20260906165516 21 0 8.0 17.7 0.00 0.00 0.00 68 1019.4
20260906165016 21 90 9.7 17.7 0.00 0.00 0.00 70 1019.4
20260906164516 21 45 8.0 17.7 0.00 0.00 0.00 69 1019.5
20260906164016 22 0 6.4 14.5 0.00 0.00 0.00 70 1019.4
20260906163516 21 0 6.4 16.1 0.00 0.00 0.00 69 1019.4
20260906163016 22 0 6.4 19.3 0.00 0.00 0.00 71 1019.4
20260906162516 21 0 4.8 14.5 0.00 0.00 0.00 69 1019.4
20260906162016 22 0 6.4 14.5 0.00 0.00 0.00 68 1019.4
20260906161516 22 0 4.8 12.9 0.00 0.00 0.00 71 1019.3
20260906161036 22 0 6.4 14.5 0.00 0.00 0.00 68 1019.4
20260906160536 22 0 8.0 16.1 0.00 0.00 0.00 68 1019.5
20260906160016 22 0 6.4 17.7 0.00 0.00 0.00 70 1019.4
20260906155516 22 0 9.7 19.3 0.00 0.00 0.00 69 1019.3
20260906155015 22 0 8.0 22.5 0.00 0.00 0.00 70 1019.2
20260906154516 21 0 12.9 22.5 0.00 0.00 0.00 70 1019.3
20260906154015 22 0 8.0 16.1 0.00 0.00 0.00 71 1019.3
20260906153516 22 0 6.4 16.1 0.00 0.00 0.00 73 1019.2
20260906153038 21 0 6.4 16.1 0.00 0.00 0.00 71 1019.1
20260906152516 21 0 8.0 16.1 0.00 0.00 0.00 73 1019.1
20260906152017 21 0 4.8 12.9 0.00 0.00 0.00 73 1019.1
20260906151518 21 0 6.4 16.1 0.00 0.00 0.00 72 1019.1
20260906151018 21 0 8.0 14.5 0.00 0.00 0.00 73 1019.2
20260906150517 21 0 8.0 19.3 0.00 0.00 0.00 73 1019.2
20260906150018 21 0 6.4 16.1 0.00 0.00 0.00 76 1019.1
20260906145518 21 0 6.4 16.1 0.00 0.00 0.00 75 1019.1
20260906145017 21 0 8.0 16.1 0.00 0.00 0.00 75 1019.0
20260906144518 21 0 8.0 17.7 0.00 0.00 0.00 74 1019.0
20260906144018 21 0 8.0 19.3 0.00 0.00 0.00 74 1019.0
20260906143518 21 0 3.2 9.7 0.00 0.00 0.00 75 1019.0
20260906143018 21 23 4.8 12.9 0.00 0.00 0.00 75 1019.0
20260906142518 21 0 4.8 14.5 0.00 0.00 0.00 76 1019.1
20260906142018 20 23 4.8 16.1 0.00 0.00 0.00 79 1019.0
20260906141517 20 0 6.4 14.5 0.00 0.00 0.00 80 1018.8
20260906141018 20 0 4.8 14.5 0.00 0.00 0.00 80 1018.9
20260906140518 20 0 6.4 11.3 0.00 0.00 0.00 81 1018.8
20260906140017 20 0 4.8 12.9 0.00 0.00 0.00 83 1018.7
20260906135518 20 0 3.2 8.0 0.00 0.00 0.00 84 1018.7
20260906135018 20 0 4.8 12.9 0.00 0.00 0.00 85 1018.6
20260906134518 19 0 3.2 9.7 0.00 0.00 0.00 86 1018.6
20260906134017 19 0 4.8 9.7 0.00 0.00 0.00 85 1018.6
20260906133518 19 0 3.2 8.0 0.00 0.00 0.00 85 1018.6
20260906133017 19 23 3.2 8.0 0.00 0.00 0.00 86 1018.6
20260906132517 19 0 4.8 14.5 0.00 0.00 0.00 87 1018.6
20260906132038 18 0 4.8 12.9 0.00 0.00 0.00 87 1018.6
20260906131517 18 0 4.8 12.9 0.00 0.00 0.00 88 1018.5
20260906131017 18 0 4.8 14.5 0.00 0.00 0.00 88 1018.4
20260906130517 18 45 4.8 9.7 0.00 0.00 0.00 89 1018.5
20260906130017 18 0 4.8 12.9 0.00 0.00 0.00 90 1018.5
20260906125517 18 45 4.8 14.5 0.00 0.00 0.00 91 1018.5
20260906125017 18 45 4.8 12.9 0.00 0.00 0.00 92 1018.5
20260906124517 18 0 6.4 16.1 0.00 0.00 0.00 93 1018.3
20260906124017 18 0 8.0 17.7 0.00 0.00 0.00 94 1018.3
20260906123517 18 0 11.3 20.9 0.00 0.00 0.00 94 1018.4
20260906123017 18 45 4.8 9.7 0.00 0.00 0.00 95 1018.4
20260906122517 17 45 3.2 9.7 0.00 0.00 0.00 95 1018.2
20260906122017 17 23 3.2 14.5 0.00 0.00 0.00 96 1018.2
20260906121517 16 0 1.6 6.4 0.00 0.00 0.00 96 1018.2
20260906121057 15 0.0 3.2 0.00 0.00 0.00 95 1018.2
20260906120517 15 0.0 0.0 0.00 0.00 0.00 95 1018.1
20260906120017 15 0.0 0.0 0.00 0.00 0.00 94 1017.9
20260906115517 15 0.0 0.0 0.00 0.00 0.00 94 1017.8
20260906115037 15 0.0 0.0 0.00 0.00 0.00 94 1017.7
20260906114517 15 0.0 0.0 0.00 0.00 0.00 94 1017.7
20260906114017 15 0.0 0.0 0.00 0.00 0.00 94 1017.6
20260906113517 15 0.0 0.0 0.00 0.00 0.00 94 1017.6
20260906113017 15 0.0 0.0 0.00 0.00 0.00 94 1017.6
20260906112517 15 0.0 0.0 0.00 0.00 0.00 94 1017.6
20260906112017 15 0.0 0.0 0.00 0.00 0.00 93 1017.7
20260906111517 15 0.0 1.6 0.00 0.00 0.00 93 1017.5
20260906111017 15 0.0 0.0 0.00 0.00 0.00 93 1017.5
20260906110517 15 0.0 0.0 0.00 0.00 0.00 93 1017.4
20260906110017 15 0.0 0.0 0.00 0.00 0.00 93 1017.4
20260906105537 15 0.0 0.0 0.00 0.00 0.00 93 1017.4
20260906105017 15 0.0 0.0 0.00 0.00 0.00 93 1017.4
20260906104517 15 0.0 0.0 0.00 0.00 0.00 93 1017.3
20260906104017 15 0.0 1.6 0.00 0.00 0.00 93 1017.2
20260906103517 15 0.0 0.0 0.00 0.00 0.00 93 1017.2
20260906103037 15 0.0 0.0 0.00 0.00 0.00 93 1017.2
20260906102517 15 0.0 0.0 0.00 0.00 0.00 93 1017.1
20260906102017 15 0.0 0.0 0.00 0.00 0.00 93 1017.1
20260906101517 15 0.0 0.0 0.00 0.00 0.00 93 1017.0
20260906101017 15 0.0 0.0 0.00 0.00 0.00 93 1017.1
20260906100517 15 0.0 0.0 0.00 0.00 0.00 93 1017.0
20260906100017 15 0.0 0.0 0.00 0.00 0.00 93 1016.9
20260906095517 15 0.0 0.0 0.00 0.00 0.00 93 1016.9
20260906095017 15 0.0 0.0 0.00 0.00 0.00 93 1016.9
20260906094517 15 0.0 0.0 0.00 0.00 0.00 92 1016.9
20260906094017 15 0.0 0.0 0.00 0.00 0.00 92 1016.9
20260906093517 15 0.0 0.0 0.00 0.00 0.00 92 1016.9
20260906093037 15 0.0 0.0 0.00 0.00 0.00 92 1016.8
20260906092517 15 0.0 0.0 0.00 0.00 0.00 92 1016.9
20260906092017 15 0.0 0.0 0.00 0.00 0.00 92 1016.7
20260906091517 15 0.0 0.0 0.00 0.00 0.00 92 1016.6
20260906091017 15 0.0 0.0 0.00 0.00 0.00 93 1016.5
20260906090517 15 0.0 0.0 0.00 0.00 0.00 93 1016.6
20260906090017 15 0.0 0.0 0.00 0.00 0.00 92 1016.4
20260906085517 15 0.0 0.0 0.00 0.00 0.00 93 1016.3
20260906085017 16 0.0 0.0 0.00 0.00 0.00 93 1016.1
20260906084517 16 0.0 0.0 0.00 0.00 0.00 93 1016.0
20260906084037 16 0.0 0.0 0.00 0.00 0.00 93 1016.1
20260906083517 16 0.0 0.0 0.00 0.00 0.00 93 1016.1
20260906083017 16 0.0 0.0 0.00 0.00 0.00 93 1016.0
20260906082517 16 0.0 0.0 0.00 0.00 0.00 93 1016.0
20260906082017 16 0.0 0.0 0.00 0.00 0.00 93 1016.0
20260906081517 16 0.0 0.0 0.00 0.00 0.00 93 1015.9
20260906081017 16 0.0 0.0 0.00 0.00 0.00 93 1016.0
20260906080517 16 0.0 0.0 0.00 0.00 0.00 93 1016.0
20260906080017 16 0.0 0.0 0.00 0.00 0.00 93 1015.9
20260906075557 16 0.0 0.0 0.00 0.00 0.00 93 1016.0
20260906075017 16 0.0 0.0 0.00 0.00 0.00 93 1016.0
20260906074517 16 0.0 1.6 0.00 0.00 0.00 93 1016.0
20260906074017 16 0.0 1.6 0.00 0.00 0.00 93 1015.9
20260906073537 16 0.0 1.6 0.00 0.00 0.00 93 1015.8
20260906073017 16 0.0 0.0 0.00 0.00 0.00 93 1015.8
20260906072517 16 0.0 0.0 0.00 0.00 0.00 93 1015.8
20260906072017 16 0.0 0.0 0.00 0.00 0.00 93 1015.9
20260906071517 16 0.0 0.0 0.00 0.00 0.00 93 1015.8
20260906071017 16 0.0 0.0 0.00 0.00 0.00 93 1015.8
20260906070517 17 0.0 0.0 0.00 0.00 0.00 93 1015.8
20260906070017 17 0.0 0.0 0.00 0.00 0.00 93 1015.8
20260906065517 17 0.0 0.0 0.00 0.00 0.00 93 1016.0
20260906065017 17 0.0 0.0 0.00 0.00 0.00 93 1016.0
20260906064517 17 0.0 0.0 0.00 0.00 0.00 93 1016.0
20260906064017 17 0.0 0.0 0.00 0.00 0.00 93 1016.1
20260906063517 17 0.0 1.6 0.00 0.00 0.00 93 1016.0
20260906063017 17 0.0 1.6 0.00 0.00 0.00 93 1016.1
20260906062517 17 0.0 1.6 0.00 0.00 0.00 93 1016.0
20260906062017 17 0.0 1.6 0.00 0.00 0.00 93 1015.9
20260906061517 17 0.0 0.0 0.00 0.00 0.00 93 1015.9
20260906061017 17 0.0 0.0 0.00 0.00 0.00 92 1016.0
20260906060537 17 0.0 0.0 0.00 0.00 0.00 92 1016.0
20260906060017 17 0.0 0.0 0.00 0.00 0.00 92 1015.9
20260906055517 17 0.0 0.0 0.00 0.00 0.00 92 1015.8
20260906055017 17 0.0 0.0 0.00 0.00 0.00 92 1015.9
20260906054516 16 0.0 0.0 0.00 0.00 0.00 92 1015.9
20260906054017 16 0.0 0.0 0.00 0.00 0.00 92 1015.9
20260906053517 16 0.0 0.0 0.00 0.00 0.00 92 1016.0
20260906053017 16 0.0 0.0 0.00 0.00 0.00 92 1016.0
20260906052517 16 0.0 0.0 0.00 0.00 0.00 92 1015.9
20260906052017 16 0.0 1.6 0.00 0.00 0.00 91 1016.0
20260906051517 16 0.0 0.0 0.00 0.00 0.00 91 1016.0
20260906051016 16 0.0 1.6 0.00 0.00 0.00 91 1016.0
20260906050517 16 0.0 1.6 0.00 0.00 0.00 91 1016.1
20260906050016 16 0.0 3.2 0.00 0.00 0.00 91 1016.0
20260906045517 17 0.0 3.2 0.00 0.00 0.00 91 1016.0
20260906045017 16 0.0 0.0 0.00 0.00 0.00 91 1015.8
20260906044537 16 0.0 0.0 0.00 0.00 0.00 90 1015.8
20260906044017 16 0.0 0.0 0.00 0.00 0.00 90 1015.9
20260906043517 16 0.0 0.0 0.00 0.00 0.00 90 1015.8
20260906043016 17 0.0 0.0 0.00 0.00 0.00 90 1015.7
20260906042517 17 0.0 0.0 0.00 0.00 0.00 90 1015.7
20260906042017 17 0.0 0.0 0.00 0.00 0.00 90 1015.8
20260906041537 17 0.0 0.0 0.00 0.00 0.00 90 1015.8
20260906041017 17 0.0 0.0 0.00 0.00 0.00 90 1015.7
20260906040537 17 0.0 0.0 0.00 0.00 0.00 90 1015.7
20260906040016 17 0.0 0.0 0.00 0.00 0.00 90 1015.7
20260906035516 17 0.0 0.0 0.00 0.00 0.00 89 1015.6
20260906035036 17 0.0 0.0 0.00 0.00 0.00 89 1015.7
20260906034536 17 0.0 0.0 0.00 0.00 0.00 89 1015.6
20260906034016 17 0.0 0.0 0.00 0.00 0.00 89 1015.5
20260906033516 17 0.0 0.0 0.00 0.00 0.00 89 1015.6
20260906033016 17 0.0 0.0 0.00 0.00 0.00 89 1015.6
20260906032516 17 0.0 0.0 0.00 0.00 0.00 88 1015.5
20260906032036 17 0.0 0.0 0.00 0.00 0.00 88 1015.5
20260906031516 17 0.0 0.0 0.00 0.00 0.00 88 1015.6
20260906031016 17 0.0 0.0 0.00 0.00 0.00 88 1015.5
20260906030516 17 0.0 0.0 0.00 0.00 0.00 88 1015.5
20260906030015 17 0.0 0.0 0.00 0.00 0.00 88 1015.5
20260906025516 17 0.0 0.0 0.00 0.00 0.00 88 1015.3
20260906025016 17 0.0 0.0 0.00 0.00 0.00 87 1015.4
20260906024517 17 0.0 0.0 0.00 0.00 0.00 87 1015.5
20260906024018 17 0.0 0.0 0.00 0.00 0.00 87 1015.3
20260906023518 17 0.0 0.0 0.00 0.00 0.00 87 1015.3
20260906023018 17 0.0 0.0 0.00 0.00 0.00 86 1015.3
20260906022518 17 0.0 0.0 0.00 0.00 0.00 86 1015.2
20260906022018 18 0.0 0.0 0.00 0.00 0.00 86 1015.1
20260906021518 18 0.0 1.6 0.00 0.00 0.00 86 1015.3
20260906021018 18 0.0 1.6 0.00 0.00 0.00 85 1015.3
20260906020518 18 0.0 0.0 0.00 0.00 0.00 85 1015.1
20260906020058 18 0.0 0.0 0.00 0.00 0.00 85 1014.9
20260906015518 18 0.0 0.0 0.00 0.00 0.00 85 1015.0
20260906015017 18 0.0 0.0 0.00 0.00 0.00 84 1015.2
20260906014518 18 0.0 0.0 0.00 0.00 0.00 84 1015.0
20260906014018 18 0.0 0.0 0.00 0.00 0.00 84 1015.0
20260906013518 18 0.0 0.0 0.00 0.00 0.00 84 1015.0
20260906013018 19 0.0 0.0 0.00 0.00 0.00 84 1015.0
20260906012538 19 0.0 0.0 0.00 0.00 0.00 84 1015.0
20260906012037 19 0.0 0.0 0.00 0.00 0.00 84 1014.9
20260906011518 19 0.0 0.0 0.00 0.00 0.00 83 1014.9
20260906011018 19 0.0 0.0 0.00 0.00 0.00 83 1015.0
20260906010518 19 0.0 0.0 0.00 0.00 0.00 83 1014.9
20260906010017 19 90 1.6 3.2 0.00 0.00 0.00 83 1014.9
20260906005517 19 45 1.6 3.2 0.00 0.00 0.00 82 1014.9
20260906005017 20 0.0 0.0 0.00 0.00 0.00 82 1014.9
20260906004518 20 0.0 0.0 0.00 0.00 0.00 81 1014.8
20260906004037 20 0.0 0.0 0.00 0.00 0.00 81 1014.7
20260906003518 20 0.0 3.2 0.00 0.00 0.00 81 1014.6
20260906003018 20 0.0 1.6 0.00 0.00 0.00 80 1014.7
20260906002517 20 0.0 0.0 0.00 0.00 0.00 80 1014.6
20260906002037 20 0.0 1.6 0.00 0.00 0.00 79 1014.6
20260906001518 20 0.0 3.2 0.00 0.00 0.00 79 1014.6
20260906001017 20 0.0 1.6 0.00 0.00 0.00 78 1014.7
20260906000517 20 0.0 1.6 0.00 0.00 0.00 78 1014.7
20260906000017 20 0.0 1.6 0.00 0.00 0.00 77 1014.8
20260905235517 20 0.0 3.2 0.00 0.00 0.00 77 1014.8
20260905235017 21 0.0 3.2 0.00 0.00 0.00 77 1014.7
20260905234518 21 0.0 3.2 0.00 0.00 0.00 76 1014.8
20260905234017 21 0.0 3.2 0.00 0.00 0.00 76 1014.7
20260905233537 21 0 1.6 3.2 0.00 0.00 0.00 76 1014.7
20260905233017 21 0 1.6 4.8 0.00 0.00 0.00 76 1014.8
20260905232517 21 0 1.6 4.8 0.00 0.00 0.00 76 1014.8
20260905232017 21 0 1.6 3.2 0.00 0.00 0.00 75 1014.8
20260905231518 21 0 1.6 6.4 0.00 0.00 0.00 76 1014.8
20260905231017 21 0 3.2 6.4 0.00 0.00 0.00 75 1014.7
20260905230517 21 0 1.6 8.0 0.00 0.00 0.00 75 1014.7
20260905230017 21 0 1.6 3.2 0.00 0.00 0.00 75 1014.9
20260905225517 21 23 1.6 4.8 0.00 0.00 0.00 74 1014.9
20260905225017 22 0 4.8 9.7 0.00 0.00 0.00 74 1014.8
20260905224517 22 0 4.8 9.7 0.00 0.00 0.00 74 1014.8
20260905224017 22 0 3.2 9.7 0.00 0.00 0.00 73 1014.7
20260905223517 22 0 4.8 12.9 0.00 0.00 0.00 73 1014.8
20260905223017 22 0 4.8 8.0 0.00 0.00 0.00 72 1014.8
20260905222517 22 0 3.2 9.7 0.00 0.00 0.00 72 1014.7
20260905222017 22 0 3.2 6.4 0.00 0.00 0.00 73 1014.6
20260905221517 22 0 4.8 12.9 0.00 0.00 0.00 72 1014.6
20260905221017 22 0 3.2 8.0 0.00 0.00 0.00 71 1014.7
20260905220517 22 0 4.8 12.9 0.00 0.00 0.00 71 1014.6
20260905220017 22 0 4.8 14.5 0.00 0.00 0.00 71 1014.6
20260905215517 22 0 6.4 12.9 0.00 0.00 0.00 70 1014.5
20260905215037 23 0 4.8 11.3 0.00 0.00 0.00 70 1014.3
20260905214517 23 0 4.8 14.5 0.00 0.00 0.00 69 1014.4
20260905214017 23 0 4.8 11.3 0.00 0.00 0.00 69 1014.3
20260905213517 23 0 4.8 14.5 0.00 0.00 0.00 68 1014.3
20260905213017 23 0 6.4 11.3 0.00 0.00 0.00 68 1014.3
20260905212517 23 0 4.8 8.0 0.00 0.00 0.00 69 1014.3
20260905212017 23 0 4.8 12.9 0.00 0.00 0.00 67 1014.2
20260905211517 23 0 6.4 16.1 0.00 0.00 0.00 66 1014.1